TimeAST,TemperatureF,Dew PointF,Humidity,Sea Level PressureIn,VisibilityMPH,Wind Direction,Wind SpeedMPH,Gust SpeedMPH,PrecipitationIn,Events,Conditions,WindDirDegrees,DateUTC
12:00 AM,80.6,73.4,79,30.04,6.2,East,8.1,-,N/A,Rain,Light Rain Showers,80,2012-11-26 04:00:00
1:00 AM,80.6,71.6,74,30.01,6.2,East,8.1,-,N/A,,Partly Cloudy,80,2012-11-26 05:00:00
2:00 AM,80,71,69,30.01,34,East,8.1,,,,Partly Cloudy,100,2012-11-26 06:00:00
2:00 AM,80.6,71.6,74,30.01,6.2,East,8.1,-,N/A,,Partly Cloudy,80,2012-11-26 06:00:00
3:00 AM,80.6,71.6,74,29.98,6.2,East,8.1,-,N/A,,Partly Cloudy,80,2012-11-26 07:00:00
4:00 AM,78.8,71.6,78,29.98,6.2,East,8.1,-,N/A,,Partly Cloudy,80,2012-11-26 08:00:00
5:00 AM,79,71,72,30.00,34,East,6.9,,,,Scattered Clouds,80,2012-11-26 09:00:00
5:00 AM,78.8,71.6,78,29.98,6.2,East,6.9,-,N/A,,Partly Cloudy,80,2012-11-26 09:00:00
6:00 AM,78.8,71.6,78,30.01,6.2,ENE,9.2,-,N/A,,Partly Cloudy,70,2012-11-26 10:00:00
7:00 AM,80.6,71.6,74,30.01,6.2,ENE,9.2,-,N/A,,Partly Cloudy,70,2012-11-26 11:00:00
8:00 AM,83,72,63,30.05,44,East,10.4,,,,Scattered Clouds,80,2012-11-26 12:00:00
8:00 AM,82.4,71.6,70,30.04,6.2,ENE,10.4,-,N/A,,Partly Cloudy,70,2012-11-26 12:00:00
9:00 AM,82.4,71.6,70,30.06,6.2,ENE,10.4,-,N/A,,Scattered Clouds,70,2012-11-26 13:00:00
10:00 AM,84.2,73.4,70,30.06,6.2,ENE,10.4,-,N/A,,Scattered Clouds,70,2012-11-26 14:00:00
11:00 AM,85,74,61,30.07,44,East,10.4,,,,Partly Cloudy,90,2012-11-26 15:00:00
11:00 AM,86.0,73.4,66,30.06,6.2,East,10.4,-,N/A,,Scattered Clouds,100,2012-11-26 15:00:00
12:00 PM,86.0,73.4,66,30.04,6.2,East,12.7,-,N/A,,Scattered Clouds,100,2012-11-26 16:00:00
1:00 PM,86.0,73.4,66,30.01,6.2,ESE,10.4,-,N/A,,Scattered Clouds,110,2012-11-26 17:00:00
2:00 PM,86,73,57,30.02,44,ESE,11.5,,,,Partly Cloudy,110,2012-11-26 18:00:00
2:00 PM,86.0,73.4,66,30.01,6.2,ESE,11.5,-,N/A,,Scattered Clouds,110,2012-11-26 18:00:00
3:00 PM,86.0,73.4,66,29.98,6.2,East,12.7,-,N/A,,Scattered Clouds,100,2012-11-26 19:00:00
4:00 PM,84.2,73.4,70,29.98,6.2,East,11.5,-,N/A,,Partly Cloudy,90,2012-11-26 20:00:00
5:00 PM,83,72,63,29.99,44,East,12.7,,,,Partly Cloudy,90,2012-11-26 21:00:00
5:00 PM,82.4,73.4,74,29.98,6.2,East,12.7,-,N/A,,Scattered Clouds,90,2012-11-26 21:00:00
6:00 PM,80.6,73.4,79,30.01,6.2,East,11.5,-,N/A,,Scattered Clouds,90,2012-11-26 22:00:00
7:00 PM,80.6,71.6,74,30.01,6.2,East,12.7,-,N/A,,Partly Cloudy,100,2012-11-26 23:00:00
8:00 PM,81,71,64,30.05,44,ESE,11.5,,,,Scattered Clouds,110,2012-11-27 00:00:00
8:00 PM,-9999,-9999,N/A,30.04,6.2,ESE,11.5,-,N/A,,Partly Cloudy,110,2012-11-27 00:00:00
9:00 PM,80.6,71.6,74,30.04,6.2,East,9.2,-,N/A,,Partly Cloudy,100,2012-11-27 01:00:00
10:00 PM,80.6,71.6,74,30.06,6.2,East,9.2,-,N/A,,Partly Cloudy,90,2012-11-27 02:00:00
11:00 PM,80,73,73,30.06,37,East,8.1,,,,Scattered Clouds,100,2012-11-27 03:00:00
11:00 PM,80.6,73.4,79,30.04,6.2,East,8.1,-,N/A,,Partly Cloudy,100,2012-11-27 03:00:00